Location: Unspecified
(0.0000°N, 0.0000°E)
Time: 12:49:59
(UTC+00:00)

COSMOS 2497 - Pass Details

Date: 17 December 2025
Orbit: 1478 x 1511 km, 82.4° (Epoch: 13 January)

Event Time Altitude Azimuth Distance (km) Brightness Sun altitude
Exits shadow 20:12:29 19° 132° (SE) 2,995 ? -30.9°
Drops below altitude 10° 20:15:02 10° 145° (SE) 3,643 ? -31.5°
Sets 20:18:22 0° 154° (SSE) 4,630 ? -32.2°
